Flag for Canada Weather past 2 weeks in Calgary, Alberta, Canada

Now
27 °F

Clear.


Feels Like: 19 °F
Forecast: 18 / 43 °F
Wind: 7 mph from North

Location: Calgary International

Current Time: Mar 5, 2015 at 4:03:22 AM

Latest Report: Mar 5, 2015 at 3:00 AM


Visibility: 15 mi

Pressure: 30.11 "Hg

Humidity: 46%

Dew point: 9 °F

Location of CalgaryLocation

Historic Weather in Calgary — Graph

°F

Calgary temperature yesterday

Maximum temperature yesterday: 34 °F (at 2:00 PM)
Minimum temperature yesterday: 1 °F (at 5:00 AM)
Average temperature yesterday: 17 °F

Past Weeks' High & Low Weather Summary

 TemperatureHumidityPressure
High54 °F (Feb 23, 3:00 PM)93% (Mar 2, 4:00 AM)30.73 "Hg (Mar 2, 4:00 AM)
Low1 °F (Mar 3, 6:00 AM)24% (Feb 19, 3:00 PM)29.88 "Hg (Feb 19, 12:00 AM)
Average24 °F64%30.26 "Hg
* Reported Feb 18 3:00 AM — Mar 5 3:00 AM, Calgary, Weather by CustomWeather, © 2015

Note: Actual official high and low records may vary slightly from our data, if they occured in-between our weather recording intervals... More about our weather records

Advertising

Calgary weather history for previous 24 hours

 ConditionsComfort  
Time TempWeatherWind HumidityBarometerVisibility
3:00 AM
Thu, Mar 5
27 °FClear.7 mph46%30.11 "Hg15 mi
2:00 AM28 °FClear.3 mph43%30.11 "Hg15 mi
1:00 AM28 °FPassing clouds.2 mph40%30.11 "Hg15 mi
12:00 AM25 °FClear.2 mph50%30.11 "Hg15 mi
11:00 PM
Wed, Mar 4
23 °FPassing clouds.5 mph58%30.12 "Hg15 mi
10:00 PM21 °FClear.3 mph63%30.12 "Hg15 mi
9:00 PM23 °FClear.2 mph63%30.11 "Hg15 mi
8:00 PM27 °FClear.2 mph54%30.10 "Hg15 mi
7:00 PM25 °FPassing clouds.5 mph54%30.09 "Hg20 mi
6:00 PM30 °FPartly sunny.8 mph40%30.07 "Hg40 mi
5:00 PM34 °FPartly sunny.9 mph35%30.07 "Hg40 mi
3:00 PM34 °FPartly sunny.10 mph29%30.09 "Hg40 mi
2:00 PM34 °FPartly sunny.9 mph27%30.11 "Hg40 mi
1:00 PM30 °FPartly sunny.12 mph29%30.14 "Hg40 mi
12:00 PM27 °FPartly sunny.9 mph31%30.17 "Hg40 mi
11:00 AM25 °FScattered clouds.10 mph30%30.19 "Hg40 mi
10:00 AM16 °FScattered clouds.7 mph45%30.23 "Hg40 mi
9:00 AM10 °FPartly sunny.8 mph52%30.24 "Hg40 mi
8:00 AM5 °FPartly sunny.7 mph60%30.25 "Hg40 mi
7:00 AM3 °FPassing clouds.7 mph66%30.27 "Hg40 mi
6:00 AM3 °FPassing clouds.6 mph66%30.28 "Hg15 mi
5:00 AM1 °FClear.5 mph71%30.29 "Hg15 mi
4:00 AM3 °FPassing clouds.3 mph66%30.31 "Hg15 mi
Weather by CustomWeather, © 2015

See weather overviewHow to use our weather pages